星链-31513 (STARLINK-31513 )

导读

STARLINK-31513是美国太空探索技术公司(SpaceX)星链互联网卫星项目中的一员,于2024年4月17日发射升空。它隶属于Starlink Group项目,作为低轨宽带互联网卫星,星链卫星旨在为全球提供高速互联网接入服务,该卫星进一步扩充了星链星座的组网规模。

Basic Information
目录编号:
59529
目录名称:
STARLINK-31513
国际标识:
2024-073U
轨道中心:
EARTH
卫星名称:
星链-31513
卫星全名:
星链-31513 (STARLINK-31513 )
卫星状态:
在轨 (已飞行878 天)
发射日期:
2024-04-17 UTC
国别 :
美国 (US)
星等 :
--
This satellite is enrolled in the Space Conjunction Data Service (SCDS) and the current flight risk assessment level is: No High Risk
Orbit Information
数据来源 国际轨道数据
星历时间: 2026-09-12T13:50:51+0800
15小时前
查看轨道信息
半长轴: 6861.187km
偏心率: 0.0001926
轨道倾角: 43.005°
近地点辐角 282.031°
升交点赤经 341.221°
平近点角 78.032°
近地点: 481.728km
远地点: 484.372km
周期: 94.267分钟
每日圈数: 15.275798
Detailed Information
固有亮度:
5
最大亮度:
1.5
卫星平台:
Starlink v2.0 mini
覆盖范围:
全球
运营商:
太空探索技术公司
运营商所在国:
美国
制造商(研发单位):
太空探索技术公司
制造商所在国:
美国
使用方式:
暂无
Satellite Introduction
星链(Starlink)计划是由太空探索技术公司(SpaceX)提出的一个巨型低轨卫星互联网星座项目,计划在2019年至2024年间在太空搭建由约1.2万颗卫星组成的“星链”网络,其中1584颗将部署在地球上空550千米处的近地轨道,并从2020年开始工作。该卫星仍在工作。
2D Orbit Map
3D Orbit Map
Orbit Altitude Analysis Chart
Orbit Inclination Analysis Chart
Orbit Comprehensive Analysis Chart
View Comprehensive Chart
Conjunction Data List
Event ID Objects TCA Miss Dist (km) Collision Risk Probability Collision Risk Index (CRI) Action
CDM_260914-144105-952906-249121
2026-09-14T
14:41:28+0000
0.191 km
中距离
4.612876E-4 高风险 0.88
CDM_260914-170205-952906-249121
2026-09-14T
17:02:42+0000
1.041 km
极远距离
6.728E-6 低风险 0.52
CDM_260914-183605-952906-249121
2026-09-14T
18:36:51+0000
2.600 km
极远距离
5.948478E-7 极低风险 0.3
Miss Distance Evolution Trend with All Objects
Collision Probability Evolution Trend with All Objects